Time,TemperatureF,DewpointF,PressureIn,WindDirection,WindDirectionDegrees,WindSpeedMPH,WindSpeedGustMPH,Humidity,HourlyPrecipIn,Conditions,Clouds,dailyrainin,SoftwareType,DateUTC
2013-01-26 00:03:00,53.0,-99.9,-100.00,SSE,165,4.0,5.0,-999,-99.99,,,-99.99,,2013-01-26 06:03:00,
2013-01-26 00:12:00,53.0,-99.9,-100.00,SSE,165,4.0,5.0,-999,-99.99,,,-99.99,,2013-01-26 06:12:00,
2013-01-26 01:20:00,52.0,-99.9,-100.00,South,185,5.0,6.0,-999,-99.99,,,-99.99,,2013-01-26 07:20:00,
2013-01-26 02:02:00,52.0,-99.9,-100.00,South,185,5.0,6.0,-999,-99.99,,,-99.99,,2013-01-26 08:02:00,
2013-01-26 02:11:00,52.0,-99.9,-100.00,South,185,5.0,6.0,-999,-99.99,,,-99.99,,2013-01-26 08:11:00,
2013-01-26 03:20:00,52.0,-99.9,-100.00,South,174,2.0,4.0,-999,-99.99,,,-99.99,,2013-01-26 09:20:00,
2013-01-26 04:02:00,52.0,-99.9,-100.00,South,174,2.0,4.0,-999,-99.99,,,-99.99,,2013-01-26 10:02:00,
2013-01-26 04:12:00,52.0,-99.9,-100.00,South,174,2.0,4.0,-999,-99.99,,,-99.99,,2013-01-26 10:12:00,
2013-01-26 05:20:00,51.0,-99.9,-100.00,SSW,199,1.0,6.0,-999,-99.99,,,-99.99,,2013-01-26 11:20:00,
2013-01-26 06:02:00,51.0,-99.9,-100.00,SSW,199,1.0,6.0,-999,-99.99,,,-99.99,,2013-01-26 12:02:00,
2013-01-26 06:12:00,51.0,-99.9,-100.00,SSW,199,1.0,6.0,-999,-99.99,,,-99.99,,2013-01-26 12:12:00,
2013-01-26 07:20:00,53.0,-99.9,-100.00,SW,216,4.0,6.0,-999,-99.99,,,-99.99,,2013-01-26 13:20:00,
2013-01-26 08:03:00,53.0,-99.9,-100.00,SW,216,4.0,6.0,-999,-99.99,,,-99.99,,2013-01-26 14:03:00,
2013-01-26 08:12:00,53.0,-99.9,-100.00,SW,216,4.0,6.0,-999,-99.99,,,-99.99,,2013-01-26 14:12:00,
2013-01-26 09:20:00,54.0,-99.9,-100.00,SE,127,0.0,0.0,-999,-99.99,,,-99.99,,2013-01-26 15:20:00,
2013-01-26 10:03:00,54.0,-99.9,-100.00,SE,127,0.0,0.0,-999,-99.99,,,-99.99,,2013-01-26 16:03:00,
2013-01-26 10:13:00,54.0,-99.9,-100.00,SE,127,0.0,0.0,-999,-99.99,,,-99.99,,2013-01-26 16:13:00,
2013-01-26 10:33:00,62.0,-99.9,-100.00,SW,216,6.0,9.0,-999,-99.99,,,-99.99,,2013-01-26 16:33:00,
2013-01-26 10:43:00,62.0,-99.9,-100.00,SW,216,6.0,9.0,-999,-99.99,,,-99.99,,2013-01-26 16:43:00,
2013-01-26 10:53:00,62.0,-99.9,-100.00,SW,216,6.0,9.0,-999,-99.99,,,-99.99,,2013-01-26 16:53:00,
2013-01-26 12:42:00,69.0,-99.9,-100.00,SW,219,11.0,18.0,-999,-99.99,,,-99.99,,2013-01-26 18:42:00,
2013-01-26 12:50:00,73.0,-99.9,-100.00,SSW,196,20.0,20.0,-999,-99.99,,,-99.99,,2013-01-26 18:50:00,
2013-01-26 12:53:00,69.0,-99.9,-100.00,SW,219,11.0,18.0,-999,-99.99,,,-99.99,,2013-01-26 18:53:00,
2013-01-26 13:33:00,73.0,-99.9,-100.00,SSW,196,20.0,20.0,-999,-99.99,,,-99.99,,2013-01-26 19:33:00,
2013-01-26 13:43:00,73.0,-99.9,-100.00,SSW,196,20.0,20.0,-999,-99.99,,,-99.99,,2013-01-26 19:43:00,
2013-01-26 15:32:00,73.0,-99.9,-100.00,SW,214,11.0,19.0,-999,-99.99,,,-99.99,,2013-01-26 21:32:00,
2013-01-26 15:43:00,73.0,-99.9,-100.00,SW,214,11.0,19.0,-999,-99.99,,,-99.99,,2013-01-26 21:43:00,
2013-01-26 15:52:00,73.0,-99.9,-100.00,SW,214,11.0,19.0,-999,-99.99,,,-99.99,,2013-01-26 21:52:00,
2013-01-26 17:33:00,70.0,-99.9,-100.00,SSW,200,9.0,12.0,-999,-99.99,,,-99.99,,2013-01-26 23:33:00,
2013-01-26 17:42:00,70.0,-99.9,-100.00,SSW,200,9.0,12.0,-999,-99.99,,,-99.99,,2013-01-26 23:42:00,
2013-01-26 17:52:00,70.0,-99.9,-100.00,SSW,200,9.0,12.0,-999,-99.99,,,-99.99,,2013-01-26 23:52:00,
2013-01-26 19:32:00,65.0,-99.9,-100.00,South,171,8.0,9.0,-999,-99.99,,,-99.99,,2013-01-27 01:32:00,
2013-01-26 19:42:00,65.0,-99.9,-100.00,South,171,8.0,9.0,-999,-99.99,,,-99.99,,2013-01-27 01:42:00,
2013-01-26 19:52:00,65.0,-99.9,-100.00,South,171,8.0,9.0,-999,-99.99,,,-99.99,,2013-01-27 01:52:00,
2013-01-26 21:32:00,60.0,-99.9,-100.00,South,188,6.0,11.0,-999,-99.99,,,-99.99,,2013-01-27 03:32:00,
2013-01-26 21:42:00,60.0,-99.9,-100.00,South,188,6.0,11.0,-999,-99.99,,,-99.99,,2013-01-27 03:42:00,
2013-01-26 21:52:00,60.0,-99.9,-100.00,South,186,8.0,13.0,-999,-99.99,,,-99.99,,2013-01-27 03:52:00,
2013-01-26 22:00:00,60.0,-99.9,-100.00,SSW,208,10.0,12.0,-999,-99.99,,,-99.99,,2013-01-27 04:00:00,
2013-01-26 22:02:00,60.0,-99.9,-100.00,WSW,245,4.0,12.0,-999,-99.99,,,-99.99,,2013-01-27 04:02:00,
2013-01-26 22:12:00,60.0,-99.9,-100.00,WSW,245,4.0,12.0,-999,-99.99,,,-99.99,,2013-01-27 04:12:00,
2013-01-26 22:22:00,60.0,-99.9,-100.00,WSW,245,4.0,12.0,-999,-99.99,,,-99.99,,2013-01-27 04:22:00,
2013-01-26 22:52:00,60.0,-99.9,-100.00,SSW,208,10.0,12.0,-999,-99.99,,,-99.99,,2013-01-27 04:52:00,